Decatur, AL

4:10 AM CST on January 16, 2018 (GMT -0600)
Pryor Regional

Weather History for KDCU - December, 2012

Change the Weather History Date:

Saturday, December 8, 2012

  Actual Average Record
Temperature  
Mean Temperature 62 °F -  
Max Temperature 68 °F 55 °F 78 °F (1956)
Min Temperature 57 °F 34 °F 15 °F (1977)
Degree Days  
Heating Degree Days 2    
Growing Degree Days 12 (Base 50)    
Moisture  
Dew Point 57 °F    
Average Humidity 88    
Maximum Humidity 97    
Minimum Humidity 63    
Precipitation  
Precipitation 0.00 in - - ()
Sea Level Pressure  
Sea Level Pressure 29.97 in    
Wind  
Wind Speed 7 mph (South)    
Max Wind Speed 15 mph    
Max Gust Speed -    
Visibility 7 miles    
Events      
Averages and records for this station are not official NWS values.
T = Trace of Precipitation, MM = Missing Value Source: NWS Daily Summary

Daily Weather History Graph

Daily Weather History Graph

Search for Another Location

Airport or City:

Trip Planner

Search our weather history database for the weather conditions in past years. The results will help you decide how hot, cold, wet, or windy it might be!

Date:

Astronomy

Dec. 08, 2012 Rise Set
Actual Time 6:42 AM CST 4:37 PM CST
Civil Twilight 6:14 AM CST 5:04 PM CST
Nautical Twilight 5:43 AM CST 5:36 PM CST
Astronomical Twilight 5:12 AM CST 6:06 PM CST
Moon 1:17 AM CST (12/8) 12:57 PM CST (12/8)
Length of Visible Light 10h 49m
Length of Day
9h 54m
Waning Crescent, 28% of the Moon is Illuminated
Dec 8
Waning Crescent
Dec 13
New
Dec 19
First Quarter
Dec 28
Full
Jan 4
Last Quarter

Hourly Weather History & Observations

Time (CST) Temp. Dew Point Humidity Pressure Visibility Wind Dir Wind Speed Gust Speed Precip Events Conditions
12:34 AM 59.0 °F 55.4 °F 88% 29.96 in 9.0 mi South 5.8 mph - N/A   Overcast
12:53 AM 59.0 °F 55.9 °F 90% 29.95 in 9.0 mi South 5.8 mph - N/A   Overcast
1:53 AM 59.0 °F 55.9 °F 90% 29.95 in 8.0 mi South 9.2 mph - N/A   Overcast
2:53 AM 59.0 °F 57.0 °F 93% 29.95 in 7.0 mi South 9.2 mph - N/A   Mostly Cloudy
2:59 AM 59.0 °F 57.2 °F 94% 29.96 in 7.0 mi South 6.9 mph - N/A   Scattered Clouds
3:37 AM 59.0 °F 57.2 °F 94% 29.97 in 6.0 mi South 6.9 mph - N/A   Mostly Cloudy
3:53 AM 59.0 °F 57.0 °F 93% 29.97 in 6.0 mi SSW 4.6 mph - N/A   Overcast
4:11 AM 60.8 °F 57.2 °F 88% 29.98 in 6.0 mi South 5.8 mph - N/A   Overcast
5:23 AM 59.0 °F 57.2 °F 94% 29.98 in 5.0 mi South 8.1 mph - N/A   Overcast
5:36 AM 59.0 °F 57.2 °F 94% 29.98 in 5.0 mi South 5.8 mph - N/A   Overcast
5:48 AM 59.0 °F 57.2 °F 94% 29.99 in 5.0 mi South 4.6 mph - N/A   Overcast
5:53 AM 59.0 °F 57.0 °F 93% 29.98 in 4.0 mi SSE 5.8 mph - N/A   Overcast
6:44 AM 59.0 °F 57.2 °F 94% 29.98 in 3.0 mi SSE 10.4 mph - N/A   Overcast
6:53 AM 59.0 °F 57.9 °F 96% 29.96 in 3.0 mi SSE 13.8 mph - N/A   Overcast
7:18 AM 59.0 °F 57.2 °F 94% 29.97 in 4.0 mi South 13.8 mph - N/A   Mostly Cloudy
7:53 AM 61.0 °F 59.0 °F 93% 29.96 in 6.0 mi South 11.5 mph - N/A   Overcast
8:53 AM 61.0 °F 57.9 °F 90% 29.99 in 8.0 mi South 6.9 mph - N/A   Overcast
9:53 AM 62.1 °F 57.9 °F 86% 30.01 in 9.0 mi SSW 5.8 mph - N/A   Overcast
10:11 AM 62.6 °F 59.0 °F 88% 30.00 in 9.0 mi SSW 6.9 mph - N/A   Overcast
10:53 AM 64.0 °F 57.9 °F 80% 30.00 in 10.0 mi SW 6.9 mph - N/A   Overcast
11:53 AM 64.9 °F 57.0 °F 75% 29.97 in 10.0 mi SSW 8.1 mph - N/A   Overcast
12:53 PM 66.9 °F 57.9 °F 73% 29.95 in 10.0 mi South 6.9 mph - N/A   Mostly Cloudy
1:05 PM 66.2 °F 57.2 °F 73% 29.96 in 10.0 mi South 5.8 mph - N/A   Scattered Clouds
1:53 PM 68.0 °F 55.9 °F 65% 29.93 in 10.0 mi South 11.5 mph - N/A   Partly Cloudy
2:53 PM 68.0 °F 55.0 °F 63% 29.93 in 10.0 mi South 15.0 mph - N/A   Partly Cloudy
3:53 PM 66.0 °F 55.9 °F 70% 29.93 in 10.0 mi South 8.1 mph - N/A   Partly Cloudy
4:53 PM 61.0 °F 55.0 °F 81% 29.94 in 9.0 mi SSE 4.6 mph - N/A   Clear
5:53 PM 60.1 °F 55.9 °F 86% 29.95 in 9.0 mi SSE 3.5 mph - N/A   Scattered Clouds
6:53 PM 59.0 °F 55.9 °F 90% 29.97 in 8.0 mi SE 4.6 mph - N/A   Clear
7:53 PM 57.0 °F 55.9 °F 96% 29.98 in 9.0 mi SSE 6.9 mph - N/A   Scattered Clouds
8:53 PM 59.0 °F 57.9 °F 96% 29.97 in 6.0 mi SSE 6.9 mph - N/A   Partly Cloudy
9:53 PM 61.0 °F 59.0 °F 93% 29.98 in 6.0 mi South 8.1 mph - N/A   Mostly Cloudy
10:37 PM 60.8 °F 59.0 °F 94% 29.99 in 6.0 mi South 6.9 mph - N/A   Mostly Cloudy
10:53 PM 61.0 °F 60.1 °F 97% 29.98 in 7.0 mi South 6.9 mph - N/A   Overcast
11:53 PM 62.1 °F 60.1 °F 93% 29.99 in 7.0 mi South 5.8 mph - N/A   Overcast